DHK1278 LIPY-LFLL

Flight info

Callsign DHK1278
Flight time 1h 9m
Altitude 32000
Route BIDMA DCT OKMAP DCT GEN/N0477F310 DCT OKTET/N0475F320 DCT PINED
Aircraft B77L/H-SDE1E2E3FGHIJ2J3J4J5M1RWXY/LB1D1

Departure

Time 2026-05-01 10:29
Airport Marche Airport (LIPY)

Arrival

Time 2026-05-01 11:38
Airport Lyon Saint-Exupéry Airport (LFLL)
Time Latitude Longitude Altitude Speed Heading
2026-05-01 09:47 43.60880 13.35649 61 ft 0 kts 134°
2026-05-01 09:54 43.60880 13.35648 61 ft 0 kts 134°
2026-05-01 10:02 43.60881 13.35648 61 ft 0 kts 134°
2026-05-01 10:20 43.60881 13.35647 61 ft 1 kts 134°
2026-05-01 10:20 43.60894 13.35631 52 ft 3 kts 143°
2026-05-01 10:20 43.60909 13.35618 52 ft 2 kts 156°
2026-05-01 10:21 43.60923 13.35612 52 ft 2 kts 177°
2026-05-01 10:21 43.60952 13.35622 52 ft 2 kts 214°
2026-05-01 10:21 43.60962 13.35633 52 ft 1 kts 221°
2026-05-01 10:22 43.60974 13.35648 52 ft 1 kts 225°
2026-05-01 10:22 43.60975 13.35649 61 ft 0 kts 225°
2026-05-01 10:24 43.60975 13.35650 61 ft 0 kts 225°
2026-05-01 10:26 43.60956 13.35624 54 ft 15 kts 224°
2026-05-01 10:27 43.60763 13.35363 52 ft 20 kts 225°
2026-05-01 10:27 43.60724 13.35209 54 ft 8 kts 309°
2026-05-01 10:28 43.60769 13.35152 52 ft 9 kts 318°
2026-05-01 10:28 43.60852 13.35162 54 ft 0 kts 43°
2026-05-01 10:28 43.60994 13.35354 54 ft 81 kts 45°
2026-05-01 10:29 43.62607 13.37523 1208 ft 184 kts 44°
2026-05-01 10:29 43.63497 13.38777 2579 ft 190 kts 45°
2026-05-01 10:30 43.65546 13.41552 4212 ft 209 kts 45°
2026-05-01 10:30 43.68018 13.43534 5930 ft 218 kts 356°
2026-05-01 10:31 43.71012 13.42664 7610 ft 225 kts 350°
2026-05-01 10:31 43.74031 13.41729 9511 ft 222 kts 351°
2026-05-01 10:32 43.77049 13.40636 11094 ft 232 kts 333°
2026-05-01 10:32 43.78205 13.39055 11770 ft 247 kts 303°
2026-05-01 10:32 43.78130 13.34087 12815 ft 290 kts 245°
2026-05-01 10:33 43.76158 13.29053 14353 ft 302 kts 241°
2026-05-01 10:33 43.73683 13.23914 15103 ft 347 kts 238°
2026-05-01 10:34 43.72281 13.21045 15320 ft 374 kts 238°
2026-05-01 10:34 43.70811 13.17984 15521 ft 400 kts 238°
2026-05-01 10:34 43.69264 13.14690 16075 ft 414 kts 240°
2026-05-01 10:35 43.66974 13.07388 17492 ft 419 kts 267°
2026-05-01 10:35 43.67035 13.03399 18424 ft 415 kts 283°
2026-05-01 10:35 43.67755 12.99583 19241 ft 412 kts 291°
2026-05-01 10:35 43.68632 12.95780 19939 ft 417 kts 292°
2026-05-01 10:36 43.70453 12.88136 21449 ft 425 kts 292°
2026-05-01 10:36 43.71372 12.84237 22198 ft 429 kts 291°
2026-05-01 10:36 43.72289 12.80290 22930 ft 434 kts 291°
2026-05-01 10:37 43.73206 12.76288 23636 ft 439 kts 291°
2026-05-01 10:37 43.75047 12.68155 24925 ft 446 kts 291°
2026-05-01 10:37 43.75970 12.64046 25569 ft 448 kts 291°
2026-05-01 10:38 43.76893 12.59918 26226 ft 450 kts 291°
2026-05-01 10:38 43.77819 12.55777 26874 ft 452 kts 291°
2026-05-01 10:38 43.78738 12.51663 27501 ft 454 kts 291°
2026-05-01 10:38 43.79674 12.47470 28087 ft 457 kts 291°
2026-05-01 10:39 43.80615 12.43250 28670 ft 460 kts 291°
2026-05-01 10:39 43.81555 12.39017 29301 ft 461 kts 291°
2026-05-01 10:39 43.82492 12.34787 30140 ft 457 kts 291°
2026-05-01 10:39 43.83413 12.30615 30980 ft 451 kts 291°
2026-05-01 10:40 43.84324 12.26480 31694 ft 448 kts 291°
2026-05-01 10:40 43.85233 12.22354 32276 ft 447 kts 291°
2026-05-01 10:40 43.87049 12.14109 32367 ft 451 kts 291°
2026-05-01 10:41 43.88855 12.05852 32369 ft 444 kts 290°
2026-05-01 10:42 43.91533 11.93567 32378 ft 444 kts 290°
2026-05-01 10:42 43.93313 11.85367 32343 ft 444 kts 290°
2026-05-01 10:43 43.95071 11.77227 32375 ft 443 kts 290°
2026-05-01 10:43 43.96837 11.69013 32354 ft 445 kts 290°
2026-05-01 10:44 43.98606 11.60762 32350 ft 446 kts 290°
2026-05-01 10:44 44.00365 11.52527 32352 ft 446 kts 290°
2026-05-01 10:45 44.02108 11.44328 32338 ft 445 kts 290°
2026-05-01 10:45 44.03852 11.36097 32330 ft 444 kts 290°
2026-05-01 10:46 44.05549 11.27841 32345 ft 444 kts 288°
2026-05-01 10:46 44.07027 11.19517 32337 ft 444 kts 287°
2026-05-01 10:47 44.08453 11.11237 32329 ft 443 kts 287°
2026-05-01 10:47 44.09901 11.02924 32328 ft 441 kts 287°
2026-05-01 10:48 44.11354 10.94631 32328 ft 441 kts 287°
2026-05-01 10:48 44.12807 10.86347 32325 ft 440 kts 287°
2026-05-01 10:49 44.14249 10.78081 32321 ft 440 kts 287°
2026-05-01 10:49 44.15677 10.69853 32309 ft 440 kts 287°
2026-05-01 10:50 44.17107 10.61577 32312 ft 440 kts 286°
2026-05-01 10:50 44.18532 10.53295 32317 ft 439 kts 286°
2026-05-01 10:51 44.19947 10.45017 32322 ft 439 kts 286°
2026-05-01 10:51 44.21349 10.36790 32316 ft 439 kts 286°
2026-05-01 10:52 44.22750 10.28520 32334 ft 438 kts 286°
2026-05-01 10:52 44.24144 10.20257 32326 ft 437 kts 286°
2026-05-01 10:53 44.25532 10.11996 32324 ft 437 kts 285°
2026-05-01 10:53 44.26903 10.03793 32320 ft 437 kts 285°
2026-05-01 10:54 44.28274 9.95548 32326 ft 436 kts 285°
2026-05-01 10:54 44.29636 9.87317 32314 ft 435 kts 285°
2026-05-01 10:55 44.30981 9.79150 32334 ft 434 kts 285°
2026-05-01 10:55 44.32330 9.70927 32331 ft 435 kts 285°
2026-05-01 10:56 44.33677 9.62680 32333 ft 435 kts 285°
2026-05-01 10:56 44.35013 9.54443 32334 ft 435 kts 285°
2026-05-01 10:57 44.36343 9.46211 32341 ft 434 kts 284°
2026-05-01 10:57 44.37660 9.38024 32340 ft 434 kts 284°
2026-05-01 10:58 44.38979 9.29783 32357 ft 434 kts 284°
2026-05-01 10:58 44.40288 9.21550 32343 ft 434 kts 284°
2026-05-01 10:59 44.41595 9.13308 32322 ft 434 kts 284°
2026-05-01 10:59 44.42566 9.05041 32338 ft 436 kts 276°
2026-05-01 11:00 44.42845 8.96546 32313 ft 438 kts 275°
2026-05-01 11:00 44.43104 8.88042 32322 ft 438 kts 275°
2026-05-01 11:01 44.43373 8.79530 32316 ft 438 kts 275°
2026-05-01 11:01 44.43644 8.71081 32315 ft 437 kts 275°
2026-05-01 11:02 44.43914 8.62584 32329 ft 437 kts 275°
2026-05-01 11:02 44.44175 8.54083 32331 ft 438 kts 275°
2026-05-01 11:03 44.44435 8.45573 32344 ft 438 kts 275°
2026-05-01 11:03 44.44686 8.37048 32349 ft 439 kts 274°
2026-05-01 11:04 44.44928 8.28579 32353 ft 439 kts 274°
2026-05-01 11:04 44.45165 8.20049 32362 ft 439 kts 274°
2026-05-01 11:05 44.45397 8.11514 32357 ft 439 kts 274°
2026-05-01 11:05 44.45625 8.02973 32370 ft 439 kts 274°
2026-05-01 11:06 44.45845 7.94423 32378 ft 440 kts 274°
2026-05-01 11:06 44.46057 7.85912 32387 ft 441 kts 274°
2026-05-01 11:07 44.46366 7.73033 32399 ft 442 kts 273°
2026-05-01 11:07 44.46564 7.64440 32402 ft 442 kts 273°
2026-05-01 11:08 44.46757 7.55822 32400 ft 443 kts 273°
2026-05-01 11:09 44.47032 7.42937 32386 ft 444 kts 273°
2026-05-01 11:09 44.47209 7.34290 32384 ft 445 kts 273°
2026-05-01 11:10 44.47463 7.21282 32358 ft 446 kts 272°
2026-05-01 11:10 44.47624 7.12593 32328 ft 447 kts 272°
2026-05-01 11:11 44.47778 7.03889 32314 ft 447 kts 272°
2026-05-01 11:11 44.47926 6.95247 32317 ft 447 kts 272°
2026-05-01 11:12 44.48067 6.86551 32291 ft 448 kts 272°
2026-05-01 11:12 44.48203 6.77827 32293 ft 448 kts 272°
2026-05-01 11:13 44.48333 6.69115 32140 ft 448 kts 272°
2026-05-01 11:13 44.48396 6.64741 31533 ft 448 kts 272°
2026-05-01 11:13 44.48711 6.60436 31017 ft 442 kts 282°
2026-05-01 11:14 44.49550 6.56390 30519 ft 436 kts 290°
2026-05-01 11:14 44.50748 6.52532 29959 ft 428 kts 297°
2026-05-01 11:14 44.52333 6.49028 29431 ft 422 kts 304°
2026-05-01 11:14 44.54015 6.45699 28945 ft 417 kts 304°
2026-05-01 11:15 44.55695 6.42403 28454 ft 412 kts 304°
2026-05-01 11:15 44.57349 6.39142 27975 ft 408 kts 304°
2026-05-01 11:15 44.58978 6.35908 27480 ft 404 kts 304°
2026-05-01 11:15 44.60583 6.32700 27034 ft 400 kts 304°
2026-05-01 11:16 44.62149 6.29554 26581 ft 396 kts 304°
2026-05-01 11:16 44.63716 6.26396 26132 ft 393 kts 304°
2026-05-01 11:16 44.65274 6.23245 25687 ft 391 kts 304°
2026-05-01 11:16 44.66820 6.20114 25256 ft 390 kts 304°
2026-05-01 11:17 44.68366 6.16980 24818 ft 393 kts 304°
2026-05-01 11:17 44.69941 6.13783 24380 ft 402 kts 304°
2026-05-01 11:17 44.71541 6.10534 23920 ft 406 kts 304°
2026-05-01 11:17 44.73144 6.07273 23385 ft 404 kts 304°
2026-05-01 11:18 44.74731 6.04042 22886 ft 400 kts 304°
2026-05-01 11:18 44.76302 6.00842 22443 ft 395 kts 304°
2026-05-01 11:18 44.77831 5.97722 22011 ft 391 kts 304°
2026-05-01 11:18 44.79383 5.94607 21512 ft 387 kts 308°
2026-05-01 11:19 44.81238 5.91847 20934 ft 391 kts 319°
2026-05-01 11:19 44.83401 5.89522 20494 ft 393 kts 326°
2026-05-01 11:19 44.85760 5.87584 20164 ft 391 kts 332°
2026-05-01 11:19 44.88151 5.85768 19891 ft 389 kts 332°
2026-05-01 11:20 44.90528 5.83975 19585 ft 387 kts 332°
2026-05-01 11:20 44.92903 5.82179 19260 ft 387 kts 332°
2026-05-01 11:20 44.95247 5.80396 18935 ft 387 kts 332°
2026-05-01 11:20 44.97611 5.78589 18645 ft 386 kts 332°
2026-05-01 11:21 44.99972 5.76777 18293 ft 386 kts 332°
2026-05-01 11:21 45.02324 5.74967 17985 ft 384 kts 332°
2026-05-01 11:21 45.04661 5.73164 17693 ft 382 kts 332°
2026-05-01 11:21 45.06980 5.71374 17376 ft 380 kts 332°
2026-05-01 11:22 45.09298 5.69583 17076 ft 379 kts 332°
2026-05-01 11:22 45.11610 5.67794 16790 ft 377 kts 332°
2026-05-01 11:22 45.13910 5.66014 16512 ft 376 kts 332°
2026-05-01 11:22 45.16204 5.64235 16248 ft 375 kts 332°
2026-05-01 11:23 45.18482 5.62467 15965 ft 374 kts 332°
2026-05-01 11:23 45.20724 5.60725 15717 ft 372 kts 332°
2026-05-01 11:23 45.22996 5.58960 15456 ft 371 kts 332°
2026-05-01 11:23 45.25260 5.57198 15187 ft 370 kts 332°
2026-05-01 11:24 45.27511 5.55445 14924 ft 368 kts 331°
2026-05-01 11:24 45.29751 5.53698 14689 ft 367 kts 331°
2026-05-01 11:24 45.34203 5.50220 14239 ft 363 kts 331°
2026-05-01 11:25 45.36411 5.48490 14068 ft 361 kts 330°
2026-05-01 11:25 45.40685 5.44797 13446 ft 366 kts 327°
2026-05-01 11:25 45.42837 5.42877 13002 ft 363 kts 328°
2026-05-01 11:26 45.44967 5.40996 12567 ft 359 kts 328°
2026-05-01 11:26 45.49163 5.37320 11713 ft 348 kts 328°
2026-05-01 11:26 45.51340 5.35947 11277 ft 344 kts 348°
2026-05-01 11:27 45.53710 5.35665 10976 ft 338 kts 358°
2026-05-01 11:27 45.56032 5.35590 10834 ft 329 kts 358°
2026-05-01 11:27 45.58279 5.35501 10683 ft 318 kts 358°
2026-05-01 11:27 45.60426 5.35389 10536 ft 307 kts 357°
2026-05-01 11:28 45.62543 5.35271 10250 ft 303 kts 357°
2026-05-01 11:28 45.64620 5.35147 10024 ft 295 kts 357°
2026-05-01 11:28 45.66652 5.35022 9697 ft 290 kts 357°
2026-05-01 11:29 45.70623 5.34789 9125 ft 282 kts 357°
2026-05-01 11:29 45.72574 5.34675 8808 ft 279 kts 357°
2026-05-01 11:29 45.76405 5.34336 8229 ft 272 kts 345°
2026-05-01 11:30 45.78129 5.33241 7991 ft 272 kts 329°
2026-05-01 11:30 45.79794 5.31906 7672 ft 275 kts 330°
2026-05-01 11:30 45.81463 5.30637 7400 ft 276 kts 331°
2026-05-01 11:30 45.83164 5.29363 7118 ft 276 kts 330°
2026-05-01 11:31 45.84731 5.27799 6840 ft 274 kts 317°
2026-05-01 11:31 45.86132 5.25946 6531 ft 275 kts 315°
2026-05-01 11:31 45.87521 5.24076 6245 ft 273 kts 316°
2026-05-01 11:31 45.88912 5.22225 5953 ft 271 kts 316°
2026-05-01 11:32 45.90293 5.20398 5664 ft 269 kts 316°
2026-05-01 11:32 45.91643 5.18639 5380 ft 254 kts 316°
2026-05-01 11:32 45.92837 5.16884 5077 ft 244 kts 300°
2026-05-01 11:32 45.93319 5.14640 4889 ft 234 kts 270°
2026-05-01 11:33 45.93199 5.12294 4641 ft 239 kts 261°
2026-05-01 11:33 45.92955 5.09955 4338 ft 232 kts 249°
2026-05-01 11:33 45.92070 5.08141 4176 ft 221 kts 214°
2026-05-01 11:33 45.90701 5.07426 3939 ft 204 kts 184°
2026-05-01 11:34 45.89333 5.07350 3756 ft 193 kts 181°
2026-05-01 11:34 45.88005 5.07409 3474 ft 188 kts 175°
2026-05-01 11:34 45.86749 5.07560 3333 ft 181 kts 176°
2026-05-01 11:34 45.85493 5.07721 3051 ft 174 kts 175°
2026-05-01 11:35 45.84358 5.07855 3011 ft 159 kts 176°
2026-05-01 11:35 45.83259 5.07998 2799 ft 157 kts 175°
2026-05-01 11:35 45.82233 5.08125 2595 ft 145 kts 173°
2026-05-01 11:35 45.81180 5.08279 2366 ft 151 kts 177°
2026-05-01 11:36 45.80170 5.08381 2194 ft 143 kts 176°
2026-05-01 11:36 45.79175 5.08487 2020 ft 143 kts 175°
2026-05-01 11:36 45.78187 5.08612 1783 ft 144 kts 174°
2026-05-01 11:36 45.77193 5.08729 1578 ft 141 kts 175°
2026-05-01 11:37 45.76229 5.08847 1362 ft 138 kts 176°
2026-05-01 11:37 45.75288 5.08965 1164 ft 134 kts 176°
2026-05-01 11:37 45.74376 5.09070 996 ft 135 kts 176°
2026-05-01 11:37 45.73436 5.09188 824 ft 135 kts 175°
2026-05-01 11:38 45.72588 5.09296 809 ft 104 kts 174°
2026-05-01 11:38 45.72019 5.09370 822 ft 60 kts 175°
2026-05-01 11:38 45.71718 5.09410 828 ft 43 kts 174°
2026-05-01 11:38 45.71511 5.09435 830 ft 24 kts 176°
2026-05-01 11:39 45.71347 5.09453 831 ft 24 kts 175°
2026-05-01 11:39 45.71210 5.09471 828 ft 12 kts 174°
2026-05-01 11:39 45.71137 5.09455 826 ft 11 kts 211°
2026-05-01 11:39 45.71107 5.09360 826 ft 11 kts 261°
2026-05-01 11:40 45.71098 5.09234 828 ft 14 kts 265°
2026-05-01 11:40 45.71095 5.09191 827 ft 0 kts 265°
2026-05-01 11:40 45.71094 5.09179 827 ft 7 kts 265°
2026-05-01 11:41 45.71085 5.09046 826 ft 13 kts 264°
2026-05-01 11:41 45.71075 5.08916 822 ft 13 kts 263°
2026-05-01 11:41 45.71080 5.08815 823 ft 9 kts 283°
2026-05-01 11:41 45.71101 5.08722 821 ft 10 kts 288°
2026-05-01 11:42 45.71117 5.08652 821 ft 8 kts 288°
2026-05-01 11:42 45.71151 5.08578 817 ft 11 kts 318°
2026-05-01 11:42 45.71229 5.08549 817 ft 13 kts 355°
2026-05-01 11:42 45.71324 5.08540 817 ft 14 kts 355°
2026-05-01 11:43 45.71406 5.08530 813 ft 11 kts 354°
2026-05-01 11:43 45.71497 5.08517 808 ft 16 kts 354°
2026-05-01 11:43 45.71517 5.08514 807 ft 0 kts 354°
2026-05-01 11:44 45.71528 5.08513 807 ft 3 kts 355°
2026-05-01 11:44 45.71582 5.08506 807 ft 18 kts 354°
2026-05-01 11:44 45.71757 5.08484 806 ft 27 kts 355°
2026-05-01 11:45 45.71941 5.08462 806 ft 26 kts 355°
2026-05-01 11:45 45.72046 5.08449 806 ft 13 kts 356°
2026-05-01 11:45 45.72139 5.08440 807 ft 14 kts 356°
2026-05-01 11:45 45.72224 5.08427 804 ft 10 kts 346°
2026-05-01 11:46 45.72251 5.08354 803 ft 8 kts 253°
2026-05-01 11:46 45.72202 5.08321 802 ft 9 kts 185°
2026-05-01 11:46 45.72143 5.08306 802 ft 9 kts 193°
2026-05-01 11:46 45.72084 5.08279 802 ft 8 kts 209°
2026-05-01 11:47 45.72096 5.08216 801 ft 8 kts 324°
2026-05-01 11:47 45.72125 5.08185 801 ft 1 kts 322°
2026-05-01 11:47 45.72126 5.08185 801 ft 0 kts 322°